[[{"header":{"parameterUnit":"m.s-1","parameterCategory":1,"la1":30.2991,"la2":30.254,"lo1":-89.0895,"lo2":-89.0444,"dy":0.0017,"dx":0.0017,"nx":28,"ny":28,"refTime":"2025-07-10T21:00:00:Z","depth":0,"parameterNumber":2,"parameterNumberName":"U-component_of_WINDS"},"data":[0,0,0,0,0,0,0,0,0,0,0,0,0,0,0,0,0,0,0,0,0,0,0,0,0,0,0,0,0,0,0,0,0,0,0,0,0,0,0,0,0,0,0,0,0,0,0,0,0,0,0,0,0,0,0,0,0,0,1.1011,1.1012,0,1.11,1.1101,1.1102,1.1059,1.1057,1.1055,1.1053,1.1148,1.1152,1.1157,0,0,0,0,0,0,0,0,0,0,0,0,0,1.0808,1.0812,1.1011,1.1012,1.1013,1.1099,1.1101,1.1102,1.106,1.1057,1.1054,1.1052,1.1146,1.1152,1.1158,0,0,0,0,0,0,0,0,0,0,0,0,0,1.0897,1.0813,1.1011,1.1002,1.1003,1.1099,1.1101,1.1102,1.106,1.1057,1.1054,1.105,1.1145,1.1151,1.1158,1.127,0,0,1.118,1.1183,0,0,0,0,0,0,0,0,1.0892,1.0904,1.1003,1.1003,1.1003,1.1065,1.1064,1.1159,1.1061,1.1039,1.1053,1.1049,1.1123,1.1132,1.1156,1.1274,1.1278,1.118,1.1184,1.1187,1.1189,0,0,0,0,0,0,0,1.0886,1.09,1.1046,1.1004,1.1005,1.0995,1.1004,1.1082,1.1099,1.104,1.1037,1.1048,1.1123,1.115,1.1158,1.128,1.118,1.1186,1.1191,1.1193,1.1493,1.1497,0,0,0,0,0,0,1.0879,1.0895,1.1043,1.1049,1.0938,1.1002,1.1011,1.1049,1.1098,1.1102,1.1051,1.1046,1.1139,1.115,1.1161,1.1296,1.1187,1.1194,1.1198,1.149,1.1494,1.1498,0,0,0,0,0,0,1.0875,1.0893,1.104,1.0971,1.0989,1.1009,1.1051,1.1052,1.1079,1.1106,1.1109,1.1075,1.1137,1.1151,1.1243,1.1298,1.1197,1.1203,1.1485,1.1491,1.1496,1.1565,0,0,0,0,0,0,1.0869,1.0892,1.0934,1.0972,1.0993,1.1119,1.1054,1.1056,1.109,1.1085,1.1129,1.1134,1.1135,1.1233,1.125,1.1306,1.1209,1.148,1.1488,1.1495,1.1558,1.1572,1.1584,0,0,0,0,0,1.0862,1.095,1.0936,1.0954,1.1046,1.1122,1.1134,1.1133,1.1095,1.1138,1.1155,1.1132,1.1289,1.1242,1.1261,1.1321,1.1477,1.1486,1.1494,1.1552,1.1569,1.1584,0,0,0,0,0,0,1.092,1.0955,1.094,1.1043,1.108,1.1115,1.1169,1.1152,1.1202,1.1194,1.1192,1.1203,1.1297,1.1318,1.1265,1.1431,1.1377,1.139,1.1415,1.1431,1.1445,1.1439,1.1215,0,0,0,0,0,1.0944,1.1002,1.103,1.1119,1.1137,1.115,1.1184,1.1179,1.1218,1.1234,1.1258,1.1298,1.1356,1.1394,1.1449,1.1559,1.1569,1.1609,1.1623,1.1634,1.1646,1.1706,1.1724,1.1526,1.1526,1.1526,0,0,1.0996,1.1022,1.1059,1.1131,1.1159,1.122,1.1164,1.1231,1.1277,1.1245,1.1332,1.1351,1.1395,1.1496,1.1542,1.1516,1.1702,1.1644,1.1653,1.1659,1.1717,1.1735,1.1752,1.1532,1.1531,1.153,0,0,1.1121,1.1146,1.1223,1.1251,1.1294,1.1301,1.1319,1.1357,1.1368,1.1455,1.1432,1.1487,1.1587,1.1619,1.1649,1.1784,1.1765,1.1802,1.1873,1.1932,1.1947,1.1961,1.2011,1.2029,1.1813,1.1813,1.1813,0,1.1181,1.1271,1.1265,1.1334,1.1366,1.1337,1.1415,1.1443,1.1502,1.1526,1.1495,1.1619,1.1647,1.1755,1.1788,1.1812,1.1834,1.1798,1.1945,1.1959,1.1972,1.2019,1.2038,1.1817,1.1817,1.1816,1.1816,0,1.1342,1.1405,1.1462,1.1517,1.1556,1.1629,1.1635,1.1675,1.1666,1.1677,1.1767,1.1798,1.1859,1.1884,1.1877,1.1992,1.1974,1.1944,1.1891,1.1995,1.204,1.2058,1.1824,1.1822,1.1821,1.182,0,0,1.151,1.1559,1.158,1.1605,1.1648,1.1697,1.1769,1.1826,1.1861,1.1902,1.1963,1.2047,1.2019,1.2053,1.2049,1.2101,1.2207,1.2064,1.2065,1.2091,1.2337,1.2361,1.2382,1.2193,1.2197,1.22,1.2334,0,1.164,1.1764,1.176,1.1876,1.1934,1.1906,1.1969,1.2003,1.2014,1.2066,1.2079,1.2139,1.2097,1.2117,1.2167,1.2184,1.2257,1.2174,1.2253,1.2255,1.2245,1.2405,1.2431,1.2556,1.2351,1.2354,1.2356,0,1.1809,1.1854,1.1976,1.2009,1.2034,1.209,1.2142,1.2191,1.2229,1.2234,1.227,1.2258,1.2332,1.2274,1.2376,1.2319,1.2351,1.2364,1.2369,1.2378,1.2314,1.2421,1.2596,1.2616,1.2383,1.2381,1.2379,0,1.1921,1.2012,1.2096,1.2118,1.2159,1.2199,1.2219,1.2253,1.2287,1.2333,1.2356,1.241,1.244,1.2483,1.2486,1.2443,1.2589,1.2532,1.2597,1.2597,1.2632,1.263,1.2817,1.2648,1.2648,1.2648,1.2647,0,1.2069,1.2145,1.2147,1.2199,1.2284,1.2277,1.2361,1.2377,1.2407,1.2463,1.2441,1.2494,1.2494,1.2548,1.2551,1.2636,1.2649,1.2656,1.2657,1.266,1.2659,1.2683,1.2675,1.2652,1.2651,1.265,1.265,0,1.221,1.2214,1.2304,1.2335,1.2344,1.2405,1.2432,1.2482,1.249,1.2561,1.2577,1.2591,1.2654,1.266,1.2733,1.2735,1.2838,1.2828,1.2825,1.2824,1.289,1.2885,1.3101,1.3129,1.294,1.2941,1.2943,0,1.2305,1.2363,1.2398,1.2433,1.2454,1.251,1.2545,1.254,1.2577,1.2624,1.2669,1.2729,1.2777,1.2878,1.2896,1.2952,1.2944,1.3016,1.2953,1.2954,1.2948,1.2945,1.2952,1.3029,1.3031,1.3033,1.3034,0,1.2474,1.2472,1.2522,1.2573,1.2614,1.2654,1.2691,1.2721,1.2721,1.2764,1.2827,1.2864,1.2937,1.2998,1.3052,1.3073,1.3055,1.3053,1.3072,1.3077,1.3074,1.3078,1.2861,1.3049,1.3048,1.3046,1.3046,1.3045,1.2597,1.2646,1.2679,1.2735,1.2762,1.2797,1.2845,1.2858,1.291,1.2968,1.2962,1.3032,1.3068,1.3138,1.3163,1.3219,1.3195,1.3222,1.3229,1.3236,1.3244,1.3062,1.3228,1.3228,1.3228,1.3227,1.3227,0,1.2766,1.2785,1.2836,1.2888,1.2932,1.2907,1.2947,1.2986,1.3047,1.3081,1.3127,1.32,1.3257,1.3278,1.3335,1.3376,1.3369,1.3391,1.339,1.3395,1.3261,1.324,1.3396,1.3396,1.3396,1.3396,1.3396,1.3396,1.286,1.2943,1.2945,1.3041,1.306,1.3126,1.3151,1.3184,1.321,1.3291,1.3338,1.335,1.338,1.3438,1.349,1.3495,1.3518,1.3545,1.3546,1.3421,1.3404,1.3388,1.3369,1.3549,1.3549,1.3676,1.3677,1.3678]},{"header":{"parameterUnit":"m.s-1","parameterCategory":1,"la1":30.2991,"la2":30.254,"lo1":-89.0895,"lo2":-89.0444,"dy":0.0017,"dx":0.0017,"nx":28,"ny":28,"refTime":"2025-07-10T21:00:00:Z","depth":0,"parameterNumber":3,"parameterNumberName":"V-component_of_WINDS"},"data":[0,0,0,0,0,0,0,0,0,0,0,0,0,0,0,0,0,0,0,0,0,0,0,0,0,0,0,0,0,0,0,0,0,0,0,0,0,0,0,0,0,0,0,0,0,0,0,0,0,0,0,0,0,0,0,0,0,0,-0.2127,-0.2127,0,-0.2209,-0.221,-0.221,-0.229,-0.2291,-0.2292,-0.2293,-0.2377,-0.2378,-0.2379,0,0,0,0,0,0,0,0,0,0,0,0,0,-0.2039,-0.204,-0.2127,-0.2128,-0.2129,-0.2208,-0.221,-0.2211,-0.229,-0.2291,-0.2292,-0.2293,-0.2376,-0.2378,-0.2379,0,0,0,0,0,0,0,0,0,0,0,0,0,-0.2094,-0.204,-0.2126,-0.2178,-0.2183,-0.2208,-0.221,-0.2211,-0.2289,-0.2291,-0.2292,-0.2294,-0.2376,-0.2378,-0.2379,-0.2361,0,0,-0.2385,-0.2386,0,0,0,0,0,0,0,0,-0.2091,-0.2097,-0.2169,-0.2174,-0.218,-0.2241,-0.2209,-0.2261,-0.2289,-0.2249,-0.2293,-0.2295,-0.233,-0.2336,-0.2348,-0.2365,-0.2368,-0.2385,-0.2387,-0.2387,-0.2388,0,0,0,0,0,0,0,-0.2087,-0.2094,-0.2159,-0.217,-0.2177,-0.2197,-0.2206,-0.222,-0.228,-0.2253,-0.2259,-0.2267,-0.2333,-0.2346,-0.235,-0.2369,-0.2385,-0.2387,-0.2388,-0.2389,-0.2375,-0.2373,0,0,0,0,0,0,-0.2075,-0.2091,-0.2156,-0.2162,-0.2139,-0.2197,-0.2208,-0.222,-0.228,-0.2291,-0.2266,-0.2271,-0.2342,-0.2348,-0.2354,-0.2335,-0.2387,-0.2389,-0.239,-0.2376,-0.2374,-0.2373,0,0,0,0,0,0,-0.2073,-0.2081,-0.2153,-0.2128,-0.2139,-0.2197,-0.221,-0.222,-0.2233,-0.229,-0.2301,-0.2267,-0.2343,-0.2351,-0.2358,-0.2339,-0.239,-0.2392,-0.2378,-0.2376,-0.2374,-0.2297,0,0,0,0,0,0,-0.207,-0.2079,-0.2072,-0.2127,-0.214,-0.2156,-0.2208,-0.2221,-0.2236,-0.2243,-0.2294,-0.2304,-0.2345,-0.2355,-0.236,-0.2343,-0.2393,-0.238,-0.2377,-0.2374,-0.2302,-0.2293,-0.2285,0,0,0,0,0,-0.2067,-0.2048,-0.2072,-0.2079,-0.2132,-0.2155,-0.2162,-0.2209,-0.2234,-0.2228,-0.2265,-0.2303,-0.2341,-0.2355,-0.2362,-0.2344,-0.2381,-0.2378,-0.2375,-0.2306,-0.2294,-0.2285,0,0,0,0,0,0,-0.1989,-0.2056,-0.2083,-0.2081,-0.2111,-0.2168,-0.2161,-0.2196,-0.222,-0.2225,-0.2283,-0.2294,-0.2295,-0.2321,-0.2336,-0.2329,-0.2366,-0.2364,-0.2312,-0.2302,-0.2293,-0.2286,-0.2395,0,0,0,0,0,-0.1972,-0.1984,-0.2042,-0.2035,-0.2049,-0.2102,-0.2114,-0.2148,-0.2182,-0.2195,-0.2232,-0.2264,-0.2283,-0.2294,-0.2315,-0.2307,-0.2319,-0.2298,-0.229,-0.2283,-0.2279,-0.2276,-0.2268,-0.2362,-0.2362,-0.2362,0,0,-0.1936,-0.1974,-0.1978,-0.202,-0.2047,-0.2059,-0.2112,-0.2122,-0.2131,-0.2196,-0.2205,-0.2234,-0.2273,-0.2272,-0.2274,-0.2294,-0.2256,-0.2278,-0.2272,-0.2273,-0.2272,-0.2263,-0.2255,-0.2359,-0.236,-0.236,0,0,-0.1875,-0.1906,-0.1903,-0.193,-0.1971,-0.2007,-0.2006,-0.2058,-0.2079,-0.2089,-0.2138,-0.215,-0.2182,-0.2208,-0.2225,-0.2176,-0.2211,-0.2181,-0.2136,-0.2133,-0.2125,-0.2119,-0.21,-0.2093,-0.2178,-0.2178,-0.2178,0,-0.1825,-0.1844,-0.1897,-0.1904,-0.192,-0.1981,-0.1978,-0.2001,-0.2047,-0.2057,-0.208,-0.2121,-0.2152,-0.2157,-0.2145,-0.2158,-0.2158,-0.2174,-0.2122,-0.2116,-0.2111,-0.2094,-0.2087,-0.2174,-0.2174,-0.2175,-0.2175,0,-0.178,-0.1793,-0.1785,-0.1828,-0.1845,-0.1846,-0.1899,-0.1909,-0.1942,-0.1976,-0.1985,-0.2025,-0.2054,-0.2059,-0.2091,-0.2069,-0.208,-0.2111,-0.215,-0.2097,-0.2082,-0.2076,-0.2168,-0.217,-0.2171,-0.2172,0,0,-0.1671,-0.1744,-0.174,-0.176,-0.1811,-0.1821,-0.1826,-0.1856,-0.1863,-0.1893,-0.1898,-0.1924,-0.1954,-0.1973,-0.201,-0.2007,-0.1964,-0.2039,-0.2041,-0.2022,-0.1941,-0.1915,-0.1907,-0.1989,-0.1988,-0.1987,-0.1937,0,-0.1618,-0.163,-0.1678,-0.1675,-0.1687,-0.1745,-0.175,-0.1781,-0.1813,-0.1829,-0.1865,-0.1881,-0.192,-0.1932,-0.1932,-0.1969,-0.1948,-0.1974,-0.1993,-0.1993,-0.1979,-0.1899,-0.1872,-0.1823,-0.1932,-0.1931,-0.193,0,-0.1557,-0.1583,-0.1582,-0.1633,-0.164,-0.1642,-0.1673,-0.1687,-0.1724,-0.1748,-0.177,-0.1811,-0.1819,-0.1856,-0.1869,-0.1885,-0.1896,-0.1916,-0.1915,-0.1917,-0.1957,-0.1897,-0.1809,-0.18,-0.1921,-0.1922,-0.1923,0,-0.1476,-0.1511,-0.1515,-0.153,-0.159,-0.159,-0.1615,-0.1654,-0.1669,-0.1696,-0.1706,-0.1734,-0.1748,-0.1769,-0.1816,-0.1839,-0.1823,-0.1864,-0.1842,-0.184,-0.1834,-0.1833,-0.1744,-0.1844,-0.1844,-0.1844,-0.1845,0,-0.141,-0.1407,-0.1479,-0.1481,-0.1479,-0.1534,-0.1531,-0.1561,-0.1596,-0.1604,-0.1657,-0.1665,-0.1727,-0.1742,-0.1779,-0.1783,-0.179,-0.1809,-0.1818,-0.1803,-0.18,-0.1809,-0.1813,-0.1843,-0.1843,-0.1843,-0.1844,0,-0.1318,-0.1366,-0.1374,-0.143,-0.1444,-0.144,-0.1488,-0.1492,-0.1528,-0.1538,-0.1544,-0.16,-0.162,-0.167,-0.1703,-0.1728,-0.1722,-0.1741,-0.1709,-0.1714,-0.1689,-0.1689,-0.16,-0.1591,-0.1699,-0.1698,-0.1697,0,-0.1272,-0.127,-0.1326,-0.1336,-0.1359,-0.1374,-0.1389,-0.1445,-0.1458,-0.1501,-0.15,-0.1524,-0.1546,-0.1575,-0.1619,-0.1645,-0.1664,-0.1631,-0.1668,-0.1652,-0.1661,-0.166,-0.1659,-0.1622,-0.162,-0.1619,-0.1618,0,-0.1184,-0.1209,-0.1228,-0.1256,-0.1273,-0.1298,-0.1325,-0.1331,-0.1393,-0.1405,-0.1426,-0.1444,-0.1478,-0.1501,-0.1533,-0.156,-0.1598,-0.1607,-0.1602,-0.1585,-0.1566,-0.1574,-0.1684,-0.1608,-0.1609,-0.1609,-0.161,-0.161,-0.1113,-0.1114,-0.1154,-0.1174,-0.1201,-0.1226,-0.1232,-0.1269,-0.1287,-0.1319,-0.1351,-0.1369,-0.1407,-0.1455,-0.1478,-0.1493,-0.1513,-0.1507,-0.1506,-0.1503,-0.1495,-0.1566,-0.1499,-0.15,-0.15,-0.15,-0.1501,0,-0.1027,-0.1055,-0.1074,-0.1111,-0.1126,-0.1163,-0.1196,-0.1207,-0.1221,-0.1254,-0.1275,-0.1299,-0.1322,-0.1368,-0.1395,-0.1398,-0.1416,-0.1403,-0.1402,-0.1407,-0.1476,-0.1476,-0.1387,-0.1387,-0.1387,-0.1387,-0.1387,-0.1387,-0.0984,-0.0987,-0.1016,-0.1034,-0.1063,-0.108,-0.1096,-0.1119,-0.1145,-0.1169,-0.1189,-0.1219,-0.1257,-0.1287,-0.131,-0.1323,-0.133,-0.131,-0.1328,-0.1392,-0.1402,-0.1412,-0.1413,-0.1311,-0.1311,-0.1258,-0.1257,-0.1257]}]]